TimePDT,TemperatureF,Dew PointF,Humidity,Sea Level PressureIn,VisibilityMPH,Wind Direction,Wind SpeedMPH,Gust SpeedMPH,PrecipitationIn,Events,Conditions,WindDirDegrees,DateUTC
12:55 AM,48.9,42.1,77,30.12,10.0,WNW,9.2,-,N/A,,Clear,300,2013-10-24 07:55:00
1:55 AM,46.9,41.0,80,30.12,10.0,Calm,Calm,-,N/A,,Clear,0,2013-10-24 08:55:00
2:55 AM,46.0,39.9,79,30.12,10.0,NW,5.8,-,N/A,,Clear,310,2013-10-24 09:55:00
3:55 AM,45.0,39.9,82,30.12,10.0,West,5.8,-,N/A,,Clear,280,2013-10-24 10:55:00
4:55 AM,44.1,39.9,85,30.12,10.0,Calm,Calm,-,N/A,,Clear,0,2013-10-24 11:55:00
5:55 AM,43.0,39.9,89,30.13,10.0,Calm,Calm,-,N/A,,Clear,0,2013-10-24 12:55:00
6:55 AM,41.0,37.0,86,30.13,10.0,NNW,3.5,-,N/A,,Clear,330,2013-10-24 13:55:00
7:55 AM,41.0,37.9,89,30.14,10.0,West,4.6,-,N/A,,Clear,280,2013-10-24 14:55:00
8:55 AM,45.0,41.0,86,30.15,10.0,NW,5.8,-,N/A,,Clear,310,2013-10-24 15:55:00
9:55 AM,46.9,42.1,83,30.16,10.0,West,4.6,-,N/A,,Clear,280,2013-10-24 16:55:00
10:55 AM,50.0,41.0,71,30.16,10.0,WSW,4.6,-,N/A,,Clear,250,2013-10-24 17:55:00
11:55 AM,54.0,41.0,62,30.14,10.0,Calm,Calm,-,N/A,,Clear,0,2013-10-24 18:55:00
12:55 PM,59.0,42.1,53,30.10,10.0,Calm,Calm,-,N/A,,Clear,0,2013-10-24 19:55:00
1:55 PM,61.0,42.1,50,30.08,10.0,Calm,Calm,-,N/A,,Clear,0,2013-10-24 20:55:00
2:55 PM,64.0,41.0,43,30.06,10.0,Calm,Calm,-,N/A,,Clear,0,2013-10-24 21:55:00
3:55 PM,64.9,42.1,43,30.06,10.0,ESE,4.6,-,N/A,,Clear,120,2013-10-24 22:55:00
4:55 PM,64.0,43.0,46,30.05,10.0,ESE,4.6,-,N/A,,Clear,110,2013-10-24 23:55:00
5:55 PM,57.0,43.0,59,30.06,10.0,East,4.6,-,N/A,,Clear,100,2013-10-25 00:55:00
6:55 PM,54.0,43.0,66,30.07,10.0,East,3.5,-,N/A,,Clear,100,2013-10-25 01:55:00
7:55 PM,55.9,42.1,60,30.09,10.0,NW,4.6,-,N/A,,Clear,310,2013-10-25 02:55:00
8:55 PM,52.0,42.1,69,30.09,10.0,Calm,Calm,-,N/A,,Clear,0,2013-10-25 03:55:00
9:55 PM,48.0,39.9,74,30.11,10.0,NW,4.6,-,N/A,,Clear,310,2013-10-25 04:55:00
10:55 PM,48.9,41.0,74,30.11,10.0,WNW,4.6,-,N/A,,Clear,290,2013-10-25 05:55:00
11:55 PM,46.9,39.0,74,30.12,10.0,WNW,4.6,-,N/A,,Clear,300,2013-10-25 06:55:00